Location: Newark
(59.4564°N, 26.6917°E)
Time: 20:36:10
(UTC+00:00)

Tiros 1 despin weight - Visible Passes

Search period start: 15 November 2019 00:00
Search period end: 25 November 2019 00:00
Orbit: 594 x 642 km, 48.2° (Epoch: 14 November)

Date Brightness Start Highest point End Pass type
(mag) Time Alt. Az. Time Alt. Az. Time Alt. Az.
15 Nov ? 14:57:16 10° SW 15:00:22 19° S 15:03:29 10° SE visible
15 Nov ? 16:37:48 10° SW 16:40:52 18° S 16:42:26 15° SSE visible
16 Nov ? 15:13:19 10° SW 15:16:32 20° S 15:19:47 10° SE visible
16 Nov ? 16:54:23 10° SW 16:57:00 15° SSW 16:58:21 14° S visible
17 Nov ? 15:29:34 10° SW 15:32:43 19° S 15:35:53 10° SE visible
17 Nov ? 17:11:27 10° SW 17:13:05 12° SSW 17:14:21 11° S visible
18 Nov ? 15:46:00 10° SW 15:48:52 17° SSW 15:51:45 10° SSE visible
19 Nov ? 14:21:22 10° SW 14:24:34 19° S 14:27:46 10° SE visible
19 Nov ? 16:02:43 10° SW 16:04:58 14° SSW 16:07:15 10° S visible
20 Nov ? 14:37:41 10° SW 14:40:44 18° S 14:43:47 10° SSE visible
20 Nov ? 16:20:43 10° SSW 16:21:02 10° SSW 16:21:21 10° SSW visible
21 Nov ? 14:54:13 10° SW 14:56:51 16° SSW 14:59:31 10° SSE visible
22 Nov ? 15:11:12 10° SW 15:12:57 12° SSW 15:14:42 10° S visible
